RH
74 76 54 49 51 59 56 56 64 66 68 66 63 60 61 64 67 67 68 68 60 63 69 68 75 79 88 84 82 84 94 93 92 92 91 91 90 89 89 88 88 87 85
71 73 69 73 58 68 69 66 66 65 60 60 58 59 59 62 66 66 68 68 69 63 67 79 85 84 87 91 91 82 80 70 65 59 62 73 83 83 83 86 87 84 83
70 71 74 76 71 68 68 65 64 60 57 56 54 56 56 58 59 62 63 64 67 71 67 74 87 87 88 98 97 94 75 65 66 58 47 41 45 59 76 82 78 81 85
72 72 73 76 74 69 68 68 67 65 63 58 53 50 51 54 56 60 63 64 66 70 72 69 75 83 90 98 93 95 81 79 77 72 64 52 42 47 64 70 75 84 90
63 65 65 68 69 71 68 68 68 68 66 65 63 59 54 51 54 60 62 64 64 66 70 73 74 72 79 87 95 91 96 94 88 81 76 70 60 48 64 68 71 71 88
68 67 66 67 70 70 70 70 70 70 68 66 64 64 61 58 56 52 57 62 64 66 68 70 74 77 76 78 86 94 94 95 90 85 84 83 75 72 63 70 72 73 87
66 68 68 66 67 69 70 70 70 69 68 67 67 66 62 58 58 61 57 61 66 67 67 69 71 76 78 78 75 75 92 93 96 99 95 87 83 81 80 79 69 75 94
67 66 67 65 64 65 68 70 72 73 71 71 69 74 83 71 66 64 66 67 67 67 68 68 71 76 77 79 77 76 75 75 91 93 95 99 98 93 88 84 79 84 87
73 68 68 71 66 66 69 73 76 77 74 74 71 69 90 86 80 67 65 66 67 67 67 69 72 75 77 77 76 75 79 80 79 85 90 97 98 98 94 90 94 97 96
90 87 84 79 79 70 68 70 73 76 77 76 76 73 70 74 87 85 67 68 69 68 69 70 71 71 72 73 76 78 81 83 83 80 85 96 95 97 98 94 99 98 96
90 98 100 95 94 95 82 83 82 82 81 80 78 76 75 78 80 84 92 73 66 66 68 69 69 68 68 66 67 68 69 70 71 75 78 97 94 92 96 94 100 100 99
88 91 100 100 95 96 99 99 90 89 88 90 91 86 84 84 89 91 96 87 78 74 67 66 65 67 72 74 75 77 78 76 74 69 78 95 92 91 92 95 99 98 100
78 80 93 89 85 87 89 89 87 84 78 80 74 76 75 80 76 74 86 89 90 89 80 79 80 84 83 85 84 83 81 78 77 80 91 99 96 99 99 99 98 98 99
77 64 83 80 81 87 80 76 80 78 81 82 77 77 82 91 87 94 86 88 98 99 93 88 89 90 88 87 86 86 82 85 92 97 100 99 96 100 100 99 97 99 97
73 72 72 86 82 74 71 85 88 81 80 93 90 94 90 94 97 96 94 92 90 98 98 98 92 94 94 90 88 85 88 94 100 100 100 99 99 98 96 94 92 90 87
56 73 83 78 73 75 84 85 85 86 100 100 100 100 100 94 90 91 94 97 94 94 95 94 99 94 92 91 91 91 94 99 99 98 98 97 94 94 91 89 86 84 83
73 72 75 80 80 89 81 87 93 95 97 94 91 94 99 100 99 99 100 99 97 96 95 100 98 98 95 93 93 88 89 96 97 98 96 94 93 90 84 82 84 85 85
92 92 95 94 92 89 86 85 83 82 81 79 79 80 75 93 93 98 99 98 100 100 99 99 100 99 96 96 91 89 89 89 87 86 88 85 83 84 85 84 82 81 72
79 80 78 77 77 75 71 71 74 78 82 87 89 93 98 100 100 99 99 100 100 100 100 99 100 100 99 100 100 98 92 86 81 78 79 79 76 73 70 62 57 51 43
66 67 68 69 70 72 75 79 81 84 89 93 98 98 97 99 100 100 99 100 100 100 100 99 99 99 97 99 99 93 83 79 74 62 59 56 52 48 45 42 45 62 39
71 71 69 69 69 70 72 73 75 78 86 97 98 98 99 100 100 100 100 100 100 100 100 99 94 93 90 93 92 84 78 71 66 61 58 44 38 38 37 41 46 47 42
69 69 70 71 72 74 75 74 77 81 83 84 88 96 99 100 100 100 100 100 97 94 92 92 89 85 84 82 84 80 74 69 60 56 49 39 41 46 49 49 55 56 56
71 73 75 76 78 79 78 76 78 82 83 87 92 95 98 99 100 98 96 93 90 88 85 83 82 82 81 78 77 71 66 58 49 51 52 42 49 55 57 60 62 58 59
75 77 79 79 79 80 82 81 81 95 97 97 99 100 97 95 94 92 92 88 85 85 82 81 79 78 74 70 67 66 60 53 58 58 56 43 69 64 64 64 68 66 64
78 78 79 78 79 81 98 99 94 100 100 100 99 99 95 91 92 91 79 75 71 71 62 56 59 55 53 53 50 46 52 53 66 69 67 60 74 73 68 63 66 70 66
80 83 86 88 91 92 100 99 100 98 100 99 98 97 96 94 98 87 67 60 51 55 54 54 59 62 59 55 47 44 43 49 74 76 75 72 85 74 70 85 78 72 68
Wind_Speed
18 13 14 15 15 16 15 15 13 10 8 8 6 9 8 5 4 2 1 1 1 3 4 4 5 6 6 6 6 6 7 7 7 7 7 8 8 9 9 9 10 10 10
18 16 18 16 15 16 13 12 10 12 10 10 8 8 8 8 6 5 5 4 3 4 5 5 5 5 5 5 5 5 5 5 5 6 6 6 7 7 7 8 8 8 9
14 17 18 17 15 15 15 12 11 12 10 11 9 10 9 9 9 10 8 7 7 6 6 7 7 7 6 8 7 6 4 3 3 3 4 4 5 5 5 5 5 6 7
17 17 19 20 18 18 16 16 14 13 11 11 11 9 9 11 10 12 11 10 9 9 9 9 10 9 8 9 8 8 3 3 4 3 3 3 3 4 3 4 4 4 4
20 18 15 17 17 16 16 17 15 13 12 10 10 9 10 12 12 12 12 13 12 12 11 10 10 11 11 10 11 10 11 10 8 6 5 5 4 4 2 2 3 2 3
19 20 20 16 18 16 17 14 14 13 12 12 10 11 12 13 13 15 15 15 13 14 14 13 12 13 12 13 14 13 13 15 14 11 9 8 8 7 7 4 2 3 1
19 20 21 19 20 21 19 18 15 14 13 9 8 9 12 14 15 15 16 15 16 16 17 16 14 13 11 11 12 15 15 15 15 18 16 14 11 11 10 9 5 4 1
21 21 22 20 20 20 19 18 17 16 14 14 7 4 2 4 16 19 17 18 17 16 17 17 14 12 12 13 12 14 15 16 18 16 18 19 17 16 15 13 10 3 3
19 25 23 20 21 21 21 19 18 18 17 15 17 5 1 3 3 4 16 18 17 18 16 16 14 14 13 15 16 15 16 17 19 19 17 16 19 20 18 17 15 10 10
15 17 21 22 19 23 23 21 19 20 19 17 14 19 14 4 2 2 3 9 13 13 12 15 15 14 13 13 13 14 16 17 19 20 19 16 15 16 21 21 17 12 8
16 15 19 21 21 22 20 20 20 21 22 19 16 9 18 17 13 6 3 4 8 9 12 15 15 13 13 14 14 15 17 18 20 19 18 15 15 16 15 21 19 16 11
7 6 11 11 10 14 15 13 14 17 16 17 18 15 15 8 9 10 5 8 7 10 14 14 14 14 12 14 15 16 16 15 14 13 12 10 14 15 12 8 16 11 8
11 6 7 4 4 7 6 7 8 13 13 16 16 20 19 27 27 18 17 8 9 11 10 14 14 14 13 12 12 13 13 11 7 6 6 6 5 8 13 14 10 10 9
14 5 20 16 14 15 12 10 12 12 15 18 21 24 28 31 22 18 18 14 2 9 10 8 14 12 9 8 9 9 7 4 4 9 11 10 8 11 14 10 8 6 6
15 16 21 22 15 15 14 17 17 19 19 22 24 25 27 21 18 19 21 21 15 4 6 12 10 12 9 7 6 5 5 6 9 11 12 9 7 7 6 6 6 7 5
13 12 18 20 20 18 16 17 19 22 21 16 16 19 19 17 17 19 22 25 28 19 4 16 14 10 9 7 7 8 7 8 9 11 10 8 7 8 6 6 5 5 5
19 22 25 26 23 20 21 22 19 18 17 20 19 19 18 18 19 21 23 27 24 25 13 8 13 12 9 9 9 8 8 8 7 7 8 8 8 8 7 7 6 6 5
13 15 17 17 17 18 17 17 17 17 17 18 20 20 20 21 22 22 22 26 20 21 14 11 13 12 11 11 11 9 8 8 8 8 9 9 8 7 7 6 5 5 6
12 13 13 12 11 12 13 13 13 13 14 14 14 15 14 14 18 19 21 18 18 19 18 14 11 14 10 14 14 10 10 9 7 7 7 7 7 6 6 6 6 7 8
11 11 9 7 7 7 7 7 8 10 11 12 12 12 14 14 16 17 18 19 17 17 16 14 12 11 11 12 14 14 12 9 9 8 8 7 6 7 8 8 9 8 9
9 8 7 6 5 6 6 7 8 9 10 10 11 11 12 13 15 15 16 17 16 16 15 15 10 8 11 12 18 15 12 11 10 10 10 7 9 7 6 7 7 7 7
10 8 7 6 6 6 7 6 8 9 9 10 10 11 12 9 9 10 12 12 14 16 17 16 14 11 14 14 17 15 15 11 5 12 8 7 6 7 6 6 5 5 4
8 7 7 7 6 6 8 8 9 10 12 12 12 11 11 9 10 10 9 11 12 13 14 15 14 13 14 16 18 18 16 13 8 7 6 4 6 5 5 5 4 3 5
8 8 7 5 6 6 9 9 10 8 10 10 9 9 9 9 9 9 10 10 8 8 9 10 11 12 12 14 14 14 14 11 9 8 5 4 5 5 6 6 5 5 6
7 7 7 8 8 9 8 7 6 7 7 8 8 9 9 9 9 9 8 9 8 7 6 8 8 9 10 11 12 13 15 15 5 7 7 4 5 5 5 7 8 7 5
10 11 10 10 9 8 6 7 6 6 8 8 8 8 9 10 8 9 9 9 10 10 9 9 10 10 9 9 10 10 12 16 7 5 8 5 4 3 3 5 5 5 5
Wind_Direction
163 168 175 173 173 170 166 166 161 162 171 169 183 177 158 159 169 178 241 210 199 176 163 142 137 130 130 127 125 124 122 115 113 108 101 97 94 88 83 79 74 68 64
182 186 178 174 172 181 170 178 180 182 184 179 188 190 199 191 203 227 223 233 249 227 209 189 174 161 159 156 154 144 140 129 123 116 112 108 105 99 93 86 79 72 66
182 183 181 187 182 186 192 185 192 189 195 202 200 205 212 208 212 226 237 248 249 239 235 217 208 202 191 180 174 175 150 135 135 122 117 125 125 114 100 92 82 74 63
183 195 198 195 189 192 189 193 196 196 200 208 216 211 213 219 222 218 231 248 248 244 239 232 231 227 216 203 207 210 262 259 220 193 170 163 157 137 115 89 75 63 56
192 183 178 190 197 195 201 197 195 209 216 217 227 224 231 230 229 223 229 240 248 247 244 246 242 237 238 231 222 235 233 238 235 242 227 218 208 196 175 124 77 37 30
196 202 201 189 197 201 201 197 205 211 215 223 220 236 242 241 243 241 236 237 243 247 249 253 247 238 240 243 239 235 240 242 253 255 257 254 236 227 211 220 298 18 65
197 199 198 196 201 206 209 213 209 212 210 209 208 232 251 252 245 245 241 239 241 244 250 253 254 245 249 254 255 247 243 249 254 237 240 243 250 244 223 220 252 319 162
202 205 202 203 203 203 204 211 215 217 220 214 196 192 286 263 241 241 242 245 249 248 243 246 253 249 251 253 259 256 255 255 256 265 248 232 228 228 219 221 230 272 254
204 203 206 207 212 211 207 209 214 216 216 215 216 184 136 226 305 243 236 241 247 247 238 231 231 233 235 243 251 246 246 252 257 257 258 257 240 228 223 219 225 252 245
210 211 211 208 218 220 211 212 220 222 224 218 218 229 240 221 162 326 249 220 224 222 217 214 214 220 232 239 243 245 250 254 258 262 263 261 263 250 229 223 228 241 200
231 237 216 211 226 218 217 214 216 224 224 224 215 201 232 242 239 208 244 232 205 200 206 214 224 236 253 257 256 255 257 263 267 266 257 264 264 268 251 243 221 165 153
176 222 230 214 197 235 227 227 236 240 237 235 244 242 233 229 221 213 214 221 221 225 224 228 236 243 251 261 266 271 272 269 269 261 257 255 256 264 253 221 144 149 161
178 167 236 223 207 233 224 234 244 258 250 245 252 255 258 258 253 269 235 218 215 219 218 229 236 242 250 255 263 269 269 265 251 247 232 180 187 149 147 142 158 156 151
225 226 234 243 241 255 238 244 263 256 257 255 258 258 261 256 255 252 248 219 226 215 218 231 230 237 238 246 256 259 248 229 181 171 166 195 211 193 175 183 185 191 185
245 244 241 241 238 236 231 224 229 251 263 261 259 258 260 258 262 261 251 243 220 226 214 221 221 228 227 230 233 229 229 205 190 194 209 214 225 220 212 212 216 222 226
230 229 229 223 223 231 239 256 263 268 259 253 247 246 252 262 262 256 255 253 245 232 239 213 207 209 200 211 215 211 218 204 200 215 222 230 227 234 223 224 217 203 227
236 236 239 238 234 249 250 254 250 245 254 261 259 262 264 264 261 258 257 251 239 236 225 196 204 195 195 195 204 205 210 206 206 219 229 227 230 232 235 228 206 206 199
230 234 228 222 222 226 235 246 252 255 262 266 268 269 269 262 261 256 252 242 241 229 217 186 196 188 199 199 210 204 212 219 229 229 229 229 224 212 211 212 211 219 232
190 194 200 204 213 224 231 238 248 259 265 268 273 272 271 260 257 251 251 234 228 224 218 197 180 189 188 194 195 194 204 218 227 223 217 213 215 218 226 231 235 239 242
182 183 186 194 215 225 241 254 263 266 266 272 275 275 266 259 253 246 243 236 225 213 206 195 186 178 188 191 201 197 196 202 219 216 220 226 235 238 243 240 241 239 252
174 178 173 182 208 238 250 261 269 271 275 275 268 265 262 256 249 243 237 229 219 210 197 192 183 175 182 173 191 198 198 191 206 220 233 240 244 248 249 238 233 243 241
176 175 177 194 207 228 254 265 262 262 268 270 269 267 264 252 242 230 223 217 216 209 202 200 201 199 199 193 196 191 184 172 212 227 232 233 233 235 255 235 241 222 217
176 178 193 206 220 243 269 269 261 258 260 262 264 256 249 236 224 224 205 195 197 208 219 220 219 220 207 201 190 186 188 193 193 191 212 234 219 222 215 199 221 250 261
195 203 216 233 252 267 275 280 282 268 253 247 247 236 229 214 204 205 205 201 198 207 213 218 221 216 210 194 198 204 199 192 183 200 224 207 195 202 196 204 214 254 279
221 240 252 259 260 263 268 280 282 260 250 233 223 220 217 211 207 206 199 187 172 176 162 169 174 186 187 191 200 196 185 178 175 195 201 196 203 218 224 228 236 246 265
234 247 247 238 239 248 244 242 257 244 232 216 206 204 203 210 211 205 194 192 177 178 181 173 171 165 175 174 185 193 195 184 160 166 191 191 197 227 158 176 194 222 231